STARLINK-34922, 65273

Orbit data source: Space-Track

STARLINK-34922, 65273 is a payload satellite owned by SpaceX/Seattle (US) in SSO that was launched on Fri, 22 Aug 2025 UTC via an FALCON 9 launch vehicle from the Air Force Western Test Range (AFWTR). Payload-class satellites include a variety of spacecraft equipped with specific instruments for various scientific and technological missions. These include communications satellites like Starlink; space stations such as the ISS; scientific satellites like the Hubble; Earth observation satellites from companies like Planet Labs, Umbra, and HawkEye 360; GPS; miniature CubeSats for education and research; and military/defense satellites.

Loading next visibility...
Identifier
65273, 2025-184A
Orbit
SSO
Country
Flag of USUS
Related business
Manufacturer
SpaceX/Seattle
Mission
Operational Commercial Communications
Bus & Motor
STARLINK V2MO, Unknown motor
Mass
575 kg wet, ~530 kg dry
Launch date (UTC)
2025-08-22 (10 months ago)
Launch vehicle
FALCON 9
Launch site
Air Force Western Test Range (AFWTR)
Object type
Payload
Rocket body
Debris
Shape & HBR
Box + 2 Pan, 17.7 m
Radar Cross Section
36.964 m², Large (>1 m²)

Expand to show TLE details & history
Last TLE update: 1 day ago

TLE from 1 day ago
0 STARLINK-34922
1 65273U 25184A   26170.70873574  .00002831  00000-0  20001-3 0  9990
2 65273  97.3379 222.1815 0001514 136.9555 223.1791 15.05658308 46656
Epoch: 2026-06-19T17:00Z
TLE epoch observation values (Epoch: 2026-06-19T17:00:34.767Z)
Latitude
-0.00007°
Longitude
59.10282°
Altitude
553.324 km
Speed
7.585 km/s
True Right ascension
14h 48m 43s
True Declination
0° 00' 00"
Sunlit
Object was in full shadow at epoch
Visualization orbit readout
Latitude
Unknown
Longitude
Unknown
Altitude
Unknown
Speed
Unknown
Apparent Right ascension
Unknown
Apparent Declination
Unknown
Sunlit
N/A
Visualization observer readout
Local Sidereal Time
07:21:16
Azimuth
Unknown
Elevation
Unknown
Doppler factor
Unknown
Orbital elements
Apogee altitude
547.516 km
Perigee altitude
545.419 km
Semi-major axis
6,924.605 km
Eccentricity
0.00015
Inclination
97.3379°
RAAN
222.1815°
Arg. of periapsis
136.9555°
True anomaly
223.16723°
Mean anomaly
223.1791°
Eccentric anomaly
223.17316°
Mean motion
3.76661 °/min
Orbital period
95.58 mins
BSTAR
0.00020001
Loading maneuver chart data...
Computing Atmospheric mass density...
Loading historical data...
Loading historical data...
Loading historical data...
Loading historical data...
Loading historical data...
Loading historical data...
Loading historical data...

Documentation

Showing up to 5 results
|